Content
SEND FEEDBACK

Daily
Averages
Monthly
Summary
United States of America

MAURICEVILLE, TEXAS


Home > North America > United States > Texas
Elevation: 20 feet     Latitude: 30 14N     Longitude: 093 44W

WEATHER
 
SELECT A DAY
Number of Records: 115,495;   Date Range: 8/25/05 - 10/23/14
 
SHARE

PRINT THIS DATA

[ ← Previous Day ]
WEATHER ALMANAC - MAY 4, 2014
[ Next Day → ]
[ °C ]   °F
Weather ElementAverageHighLow
Temperature71.9 °F84.4 °F (3:55 pm)59.9 °F (7:15 am)
Dewpoint54.6 °F62.1 °F (7:55 am)46.6 °F (3:35 pm)
Humidity59.4 %96 % (7:15 am)27 % (3:35 pm)
Barometer30.12 in30.17 in (9:35 am)30.07 in (7:35 pm)
Wind Speed7.1 mph12.7 mph (11:35 am)
Wind Gust17.3 mph (11:35 am)
Weather ElementAverage
Visibility10 mi
Wind DirectionSSW (198 °)

Weather ElementTotal
Precipitation---
Cooling Degree Days7.2 (Base 65)
Growing Degree Days22.2 (Base 50)
Averaged from 71 records on May 4, 2014
WEATHER CONDITIONS BREAKOUT
WIND DIRECTION BREAKOUT
WEATHER BY HOUR - MAY 4, 2014
[ °C ]   °F
Local TimeTemperatureDewpointHumidityBarometerVisibilityWind DirectionWind SpeedGust SpeedPrecipitationEventsConditions
12:35 AM67.5 °F59.4 °F75 %30.12 in10.0 miSSW (210°)8.1 mphClear
12:55 AM66.2 °F59.0 °F78 %30.12 in10.0 miSSW (210°)5.8 mphClear
1:15 AM67.1 °F59.4 °F76 %30.12 in10.0 miSSW (210°)8.1 mphClear
1:35 AM66.4 °F59.5 °F79 %30.12 in10.0 miSSW (210°)6.9 mphClear
1:55 AM66.2 °F59.5 °F79 %30.12 in10.0 miSW (220°)5.8 mphClear
2:15 AM66.6 °F59.9 °F79 %30.12 in10.0 miSW (220°)6.9 mphClear
2:35 AM66.0 °F59.7 °F80 %30.11 in10.0 miSSW (210°)6.9 mphClear
2:55 AM64.8 °F59.5 °F83 %30.11 in10.0 miSSW (210°)5.8 mphClear
3:15 AM65.3 °F59.9 °F83 %30.11 in10.0 miSW (220°)5.8 mphClear
3:35 AM65.7 °F59.9 °F82 %30.11 in10.0 miSSW (210°)5.8 mphClear
3:55 AM63.1 °F59.5 °F88 %30.11 in10.0 miSSW (210°)4.6 mphClear
4:15 AM62.8 °F60.3 °F91 %30.11 in10.0 miSW (220°)4.6 mphClear
4:35 AM63.3 °F61.0 °F92 %30.11 in10.0 miSW (220°)4.6 mphClear
4:55 AM63.0 °F59.2 °F87 %30.11 in10.0 miSSW (210°)4.6 mphClear
5:15 AM65.1 °F59.9 °F83 %30.11 in10.0 miSW (220°)4.6 mphClear
5:35 AM63.7 °F59.4 °F86 %30.12 in10.0 miSW (220°)5.8 mphClear
5:55 AM64.0 °F59.5 °F85 %30.12 in10.0 miSW (220°)5.8 mphClear
6:15 AM64.4 °F59.7 °F85 %30.13 in10.0 miSW (220°)3.5 mphClear
6:35 AM63.5 °F59.2 °F86 %30.13 in10.0 miSW (220°)3.5 mphClear
6:55 AM62.1 °F59.0 °F90 %30.14 in10.0 miCalmClear
7:15 AM59.9 °F58.6 °F96 %30.14 in10.0 miCalmClear
7:35 AM62.4 °F61.2 °F96 %30.15 in10.0 miCalmClear
7:55 AM65.8 °F62.1 °F88 %30.15 in10.0 miSW (220°)3.5 mphClear
8:15 AM68.7 °F59.0 °F71 %30.16 in10.0 miSW (220°)5.8 mphClear
8:35 AM70.0 °F59.4 °F69 %30.16 in10.0 miSW (220°)4.6 mphClear
8:55 AM71.2 °F59.0 °F65 %30.16 in10.0 miSW (230°)6.9 mphClear
9:15 AM72.3 °F58.5 °F62 %30.16 in10.0 miSW (230°)9.2 mphClear
9:35 AM73.6 °F57.0 °F56 %30.17 in10.0 miSW (220°)10.4 mphClear
9:55 AM75.0 °F54.5 °F49 %30.17 in10.0 miSW (220°)10.4 mphClear
10:15 AM76.1 °F54.3 °F47 %30.17 in10.0 miSW (220°)9.2 mphClear
10:35 AM76.8 °F54.9 °F46 %30.17 in10.0 miSW (230°)10.4 mphClear
10:55 AM77.5 °F53.2 °F43 %30.17 in10.0 miSSW (200°)10.4 mphClear
11:15 AM78.8 °F53.8 °F42 %30.17 in10.0 miSW (220°)6.9 mph16.1 mphClear
11:35 AM79.5 °F53.8 °F41 %30.16 in10.0 miSSW (210°)12.7 mph17.3 mphClear
11:55 AM80.2 °F52.3 °F38 %30.16 in10.0 miSW (220°)10.4 mph16.1 mphClear
12:15 PM80.8 °F49.1 °F33 %30.15 in10.0 miSSW (200°)11.5 mph16.1 mphClear
12:35 PM81.3 °F49.3 °F33 %30.14 in10.0 miSSW (210°)8.1 mph16.1 mphClear
12:55 PM82.2 °F51.1 °F34 %30.14 in10.0 miSSW (210°)9.2 mphClear
1:15 PM82.9 °F51.1 °F33 %30.13 in10.0 miSW (220°)11.5 mph17.3 mphClear
1:35 PM83.1 °F48.7 °F30 %30.13 in10.0 miSSW (210°)8.1 mphClear
1:55 PM82.8 °F48.6 °F30 %30.12 in10.0 miSW (220°)12.7 mph16.1 mphClear
2:15 PM83.3 °F49.1 °F30 %30.12 in10.0 miWSW (240°)10.4 mphClear
2:35 PM83.3 °F49.1 °F30 %30.11 in10.0 miWSW (240°)8.1 mph16.1 mphClear
2:55 PM83.3 °F48.6 °F30 %30.11 in10.0 miWSW (240°)10.4 mph16.1 mphClear
3:15 PM84.2 °F47.3 °F28 %30.10 in10.0 miSSW (200°)12.7 mph16.1 mphClear
3:35 PM84.0 °F46.6 °F27 %30.10 in10.0 miSW (220°)9.2 mph16.1 mphClear
3:55 PM84.4 °F52.5 °F33 %30.09 in10.0 miSSW (200°)12.7 mph17.3 mphClear
4:15 PM83.3 °F54.7 °F37 %30.09 in10.0 miSouth (170°)11.5 mph17.3 mphClear
4:35 PM83.3 °F47.1 °F28 %30.08 in10.0 miSW (220°)10.4 mph17.3 mphClear
4:55 PM83.1 °F46.8 °F28 %30.08 in10.0 miSW (220°)10.4 mphClear
5:15 PM82.2 °F46.6 °F29 %30.08 in10.0 miSouth (190°)12.7 mphClear
5:35 PM82.0 °F47.3 °F30 %30.08 in10.0 miSW (230°)10.4 mphClear
5:55 PM80.8 °F47.3 °F31 %30.08 in10.0 miSW (220°)8.1 mphClear
6:15 PM80.1 °F46.6 °F31 %30.08 in10.0 miSW (220°)11.5 mphClear
6:35 PM78.4 °F48.2 °F34 %30.08 in10.0 miSW (220°)10.4 mph17.3 mphClear
6:55 PM77.0 °F49.1 °F37 %30.08 in10.0 miSW (220°)11.5 mph17.3 mphClear
7:15 PM75.4 °F49.6 °F40 %30.08 in10.0 miSSW (210°)10.4 mphClear
7:35 PM74.1 °F48.6 °F40 %30.07 in10.0 miSSW (210°)6.9 mphClear
7:55 PM71.6 °F48.6 °F44 %30.08 in10.0 miSSW (210°)5.8 mphClear
8:15 PM68.0 °F49.3 °F51 %30.08 in10.0 miCalmClear
8:35 PM68.0 °F51.1 °F55 %30.08 in10.0 miSSW (200°)3.5 mphClear
8:55 PM66.2 °F53.4 °F63 %30.09 in10.0 miSouth (190°)3.5 mphClear
9:15 PM65.1 °F54.3 °F68 %30.09 in10.0 miCalmClear
9:35 PM64.9 °F55.2 °F71 %30.09 in10.0 miSouth (190°)3.5 mphClear
9:55 PM64.4 °F55.9 °F74 %30.10 in10.0 miSouth (190°)3.5 mphClear
10:15 PM64.2 °F56.3 °F75 %30.10 in10.0 miSouth (190°)4.6 mphClear
10:35 PM63.5 °F56.5 °F78 %30.11 in10.0 miSSW (200°)3.5 mphClear
10:55 PM63.5 °F56.8 °F79 %30.11 in10.0 miSSW (200°)3.5 mphClear
11:15 PM62.6 °F57.0 °F82 %30.11 in10.0 miSSW (200°)4.6 mphClear
11:35 PM63.3 °F57.4 °F81 %30.11 in10.0 miSSW (200°)4.6 mphClear
11:55 PM63.0 °F57.7 °F83 %30.11 in10.0 miSSW (200°)3.5 mphClear
Hourly data recorded from KORG, located miles away from Mauriceville, Texas







STORIES FROM OUR PARTNERS